Clarksville, TN

2:51 AM CST on November 25, 2017 (GMT -0600)
Outlaw

Weather History for KCKV - September, 2014

Change the Weather History Date:

Sunday, September 7, 2014

  Actual Average Record
Temperature  
Mean Temperature 72 °F 73 °F  
Max Temperature 80 °F 85 °F 101 °F (1990)
Min Temperature 64 °F 61 °F 41 °F (1982)
Degree Days  
Heating Degree Days 0    
Month to date heating degree days 0  
Since 1 July heating degree days 0  
Cooling Degree Days 7    
Month to date cooling degree days 95  
Year to date cooling degree days  
Growing Degree Days 23 (Base 50)    
Moisture  
Dew Point 63 °F    
Average Humidity 76    
Maximum Humidity 93    
Minimum Humidity 58    
Precipitation  
Precipitation T in 0.11 in 0.89 in (1990)
Month to date precipitation 0.23 0.71  
Year to date precipitation 33.84  
Sea Level Pressure  
Sea Level Pressure 30.08 in    
Wind  
Wind Speed 6 mph (NE)    
Max Wind Speed 12 mph    
Max Gust Speed 15 mph    
Visibility 10 miles    
Events      
T = Trace of Precipitation, MM = Missing Value Source: NWS Daily Summary

Daily Weather History Graph

Daily Weather History Graph

Search for Another Location

Airport or City:

Trip Planner

Search our weather history database for the weather conditions in past years. The results will help you decide how hot, cold, wet, or windy it might be!

Date:

Astronomy

Sep. 07, 2014 Rise Set
Actual Time 6:25 AM CDT 7:09 PM CDT
Civil Twilight 5:59 AM CDT 7:35 PM CDT
Nautical Twilight 5:28 AM CDT 8:05 PM CDT
Astronomical Twilight 4:56 AM CDT 8:37 PM CDT
Moon 6:07 PM CDT (9/7) 4:39 AM CDT (9/7)
Length of Visible Light 13h 35m
Length of Day
12h 43m
Waxing Gibbous, 97% of the Moon is Illuminated
Sep 7
Waxing Gibbous
Sep 8
Full
Sep 15
Last Quarter
Sep 24
New
Oct 1
First Quarter

Hourly Weather History & Observations

Time (CDT) Temp. Heat Index Dew Point Humidity Pressure Visibility Wind Dir Wind Speed Gust Speed Precip Events Conditions
12:52 AM 69.1 °F - 64.0 °F 84% 30.08 in 10.0 mi North 8.1 mph - N/A   Overcast
1:52 AM 68.0 °F - 64.0 °F 87% 30.07 in 10.0 mi North 8.1 mph - N/A   Mostly Cloudy
2:52 AM 66.9 °F - 64.0 °F 90% 30.07 in 10.0 mi North 8.1 mph - 0.00 in   Partly Cloudy
4:52 AM 66.9 °F - 63.0 °F 87% 30.07 in 10.0 mi NNE 8.1 mph - N/A   Clear
5:52 AM 66.9 °F - 63.0 °F 87% 30.09 in 10.0 mi NNE 6.9 mph - N/A   Clear
6:52 AM 66.0 °F - 63.0 °F 90% 30.09 in 10.0 mi NNE 5.8 mph - 0.00 in   Partly Cloudy
7:52 AM 66.9 °F - 63.0 °F 87% 30.10 in 10.0 mi NNE 4.6 mph - N/A   Clear
8:52 AM 68.0 °F - 63.0 °F 84% 30.11 in 10.0 mi NE 5.8 mph - N/A   Partly Cloudy
9:35 AM 71.1 °F - 64.0 °F 78% 30.13 in 10.0 mi NNE 11.5 mph - N/A   Mostly Cloudy
9:52 AM 71.1 °F - 64.0 °F 78% 30.11 in 10.0 mi ENE 6.9 mph - N/A   Overcast
10:52 AM 72.0 °F - 64.0 °F 76% 30.12 in 10.0 mi NE 4.6 mph - N/A   Overcast
12:52 PM 73.0 °F - 64.9 °F 76% 30.11 in 10.0 mi NE 9.2 mph - N/A   Overcast
1:52 PM 73.9 °F - 64.9 °F 73% 30.10 in 10.0 mi NE 8.1 mph - N/A   Overcast
2:44 PM 75.9 °F - 64.9 °F 69% 30.08 in 10.0 mi East 5.8 mph - N/A   Overcast
2:52 PM 75.9 °F - 64.9 °F 69% 30.07 in 10.0 mi East 5.8 mph - N/A   Overcast
4:52 PM 80.1 °F 81.9 °F 64.9 °F 60% 30.03 in 10.0 mi ENE 6.9 mph - N/A   Mostly Cloudy
5:52 PM 77.0 °F - 64.0 °F 64% 30.03 in 10.0 mi ENE 5.8 mph - N/A   Mostly Cloudy
6:52 PM 73.9 °F - 62.1 °F 66% 30.03 in 10.0 mi NE 5.8 mph - N/A   Partly Cloudy
7:52 PM 71.1 °F - 62.1 °F 73% 30.04 in 10.0 mi NNE 4.6 mph - N/A   Clear
8:52 PM 69.1 °F - 62.1 °F 78% 30.06 in 10.0 mi NE 5.8 mph - N/A   Partly Cloudy
10:52 PM 66.0 °F - 61.0 °F 84% 30.07 in 10.0 mi NNE 5.8 mph - N/A   Clear
11:52 PM 64.0 °F - 60.1 °F 87% 30.06 in 10.0 mi Calm Calm - N/A   Clear